Tomtor (Russia)  www.meteorete.it

situazione meteo Attuale :14:03:51
Temperatura : 10.8
Umidita :26.4 %
Pressione :1008.3 hPa
Vel vento :0.9 Km
Direz. :SE
Precip.(mm.):0.0
   

Condizioni Meteo per: Tomtor, Russia

aggiornamento precedente: 22.05.2017 19:39
prossimo aggiornamento: 23.05.2017 08:00
Latitude: 67.2° N
Longitude: 132.14° E
Altitude: 329 m

hPa
mm °C
    Temperatura Precipitazioni Pressione vento Umidità Nuvoloso Nebbia
 02:31     23:44 OGGI
16:00   1008.3 hPa 0.9 m/s 26% 96%
18:00   1007.8 hPa 0.8 m/s 26% 68%
20:00   1008.0 hPa 2.0 m/s 33% 56%
22:00   1007.9 hPa 2.0 m/s 48% 42%
 02:25     23:50 DOMANI
00:00   1007.7 hPa 2.8 m/s 62% 18%
02:00   1006.9 hPa 2.1 m/s 71% 47%
04:00   1006.8 hPa 1.5 m/s 71% 98%
06:00   1007.0 hPa 1.9 m/s 64% 69%
08:00   1005.9 hPa 1.9 m/s 53% 21%
10:00   1004.0 hPa 2.6 m/s 43% 2%
12:00   1002.0 hPa 4.0 m/s 36% 100%
14:00   999.0 hPa 4.8 m/s 31% 100%
16:00   996.4 hPa 4.4 m/s 31% 100%
18:00   993.6 hPa 3.5 m/s 32% 100%
20:00   993.1 hPa 4.3 m/s 34% 100%
22:00   992.4 hPa 4.0 m/s 48% 100%
 02:19     23:57 Giovedi 25.05.2017
00:00 0.2 mm 991.6 hPa 3.5 m/s 62% 99%
02:00 0.3 mm 991.1 hPa 2.3 m/s 87% 89%
04:00 0.3 mm 991.1 hPa 2.3 m/s 95% 52%
06:00 0.2 mm 991.0 hPa 2.4 m/s 95% 95%
08:00   990.6 hPa 2.1 m/s 81% 12%
10:00   989.6 hPa 2.5 m/s 53% 59%
12:00 0.2 mm 990.0 hPa 4.2 m/s 50% 100%
14:00   990.1 hPa 3.8 m/s 39% 100%
16:00   991.2 hPa 4.1 m/s 47% 98%
18:00   992.3 hPa 3.4 m/s 48% 98%
20:00   993.5 hPa 3.4 m/s 44% 27%
22:00   994.9 hPa 2.5 m/s 56% 16%
 02:13     00:03 Venerdi 26.05.2017
00:00   996.2 hPa 3.2 m/s 73% 49%
02:00   997.2 hPa 2.8 m/s 81% 100%
04:00   998.3 hPa 2.3 m/s 80% 84%
16:00   998.9 hPa 2.9 m/s 32% 100%
22:00   998.6 hPa 2.6 m/s 50% 100%
 02:06     00:10 Sabato 27.05.2017
04:00   998.3 hPa 2.1 m/s 75% 31%
10:00   998.0 hPa 4.0 m/s 39% 21%
16:00   999.0 hPa 4.5 m/s 30% 47%
22:00   1002.7 hPa 2.5 m/s 50% 31%
 01:58     00:18 Domenica 28.05.2017
04:00   1004.8 hPa 2.8 m/s 80% 31%
10:00   1005.3 hPa 2.6 m/s 37% 45%
16:00   1005.4 hPa 2.1 m/s 31% 95%
22:00 0.7 mm 1009.6 hPa 1.0 m/s 83% 99%
 01:50     00:27 Lunedi 29.05.2017
04:00   1012.5 hPa 2.2 m/s 72% 97%
10:00   1013.5 hPa 2.7 m/s 55% 63%
16:00 0.9 mm 1012.8 hPa 3.8 m/s 42% 95%
22:00   1014.0 hPa 1.5 m/s 60% 74%
 01:39     00:38 Martedi 30.05.2017
04:00   1012.5 hPa 2.0 m/s 84% 9%
10:00   1008.6 hPa 3.4 m/s 39% 100%
16:00   1004.0 hPa 4.6 m/s 43% 100%
22:00   1002.0 hPa 2.1 m/s 63% 100%
 01:23     00:54 Mercoledi 31.05.2017
04:00   1003.5 hPa 3.3 m/s 79% 94%
10:00 0.9 mm 1004.2 hPa 4.2 m/s 52% 100%
16:00 0.7 mm 1004.2 hPa 4.9 m/s 32% 67%
22:00   1007.1 hPa 3.3 m/s 50% 52%
Keskiyön aurinko Giovedi 01.06.2017
04:00   1008.9 hPa 2.7 m/s 64% 94%
10:00   1010.2 hPa 5.1 m/s 53% 97%
16:00 0.6 mm 1010.8 hPa 4.9 m/s 44% 31%
22:00 0.5 mm 1015.0 hPa 5.2 m/s 67% 100%